Location: Boiro
(42.6475°N, 8.8834°W)
Time: 17:48:17
(UTC+01:00)

Vanguard 1 Rocket - All Passes

Search period start: 06 December 2021 00:00
Search period end: 16 December 2021 00:00
Orbit: 650 x 4226 km, 34.3° (Epoch: 04 December)

Date Brightness Start Highest point End Pass type
(mag) Time Alt. Az. Time Alt. Az. Time Alt. Az.
06 Dec - 02:21:17 10° SSW 02:28:18 32° SE 02:40:21 10° E visible
06 Dec - 04:43:37 10° WSW 04:54:03 61° S 05:14:13 10° E visible
06 Dec - 07:08:25 10° W 07:23:02 60° SSW 07:47:20 10° ESE visible
06 Dec - 09:35:45 10° W 09:53:14 38° SSW 10:15:35 10° SSE daylight
06 Dec - 12:12:41 10° WSW 12:22:01 13° SW 12:31:38 10° SSW daylight
07 Dec - 01:13:00 10° S 01:17:44 18° SE 01:24:21 10° E visible
07 Dec - 03:33:19 10° SW 03:41:52 51° SSE 03:58:19 10° E visible
07 Dec - 05:57:09 10° W 06:09:25 63° S 06:32:01 10° ESE visible
07 Dec - 08:23:03 10° W 08:39:11 47° SSW 09:02:52 10° SE visible
07 Dec - 10:53:38 10° W 11:08:46 23° SW 11:25:55 10° S daylight
08 Dec - 02:23:34 10° SSW 02:30:29 37° SSE 02:42:47 10° E visible
08 Dec - 04:46:21 10° WSW 04:56:29 61° S 05:16:12 10° E visible
08 Dec - 07:11:12 10° W 07:25:17 55° SSW 07:48:48 10° SE visible
08 Dec - 09:38:57 10° W 09:55:06 32° SW 10:15:50 10° SSE daylight
09 Dec - 01:14:40 10° S 01:19:47 22° SE 01:27:26 10° E visible
09 Dec - 03:35:58 10° WSW 03:44:16 54° SSE 04:00:27 10° E visible
09 Dec - 05:59:57 10° W 06:11:49 59° S 06:33:44 10° ESE visible
09 Dec - 08:26:00 10° W 08:41:16 41° SSW 09:03:40 10° SSE daylight
09 Dec - 10:58:31 10° WSW 11:10:31 17° SW 11:24:00 10° SSW daylight
10 Dec - 02:26:01 10° SW 02:32:47 41° SSE 02:45:07 10° E visible
10 Dec - 04:49:08 10° WSW 04:58:57 60° S 05:18:08 10° ESE visible
10 Dec - 07:14:04 10° W 07:27:33 49° SSW 07:50:00 10° SE visible
10 Dec - 09:42:32 10° W 09:57:01 26° SW 10:15:27 10° S daylight
11 Dec - 01:16:43 10° SSW 01:21:58 26° SE 01:30:13 10° E visible
11 Dec - 03:38:42 10° WSW 03:46:45 56° S 04:02:34 10° E visible
11 Dec - 06:02:47 10° W 06:14:14 55° SSW 06:35:17 10° ESE visible
11 Dec - 08:29:09 10° W 08:43:22 35° SSW 09:04:03 10° SSE daylight
11 Dec - 11:06:16 10° WSW 11:12:24 12° SW 11:18:56 10° SSW daylight
12 Dec - 00:08:58 10° SSE 00:11:36 13° SE 00:14:48 10° ESE night (unlit)
12 Dec - 02:28:37 10° SW 02:35:12 45° SSE 02:47:26 10° E visible
12 Dec - 04:51:57 10° W 05:01:28 58° S 05:19:59 10° ESE visible
12 Dec - 07:17:03 10° W 07:29:51 42° SSW 07:50:56 10° SE visible
12 Dec - 09:46:49 10° WSW 09:59:01 20° SW 10:14:09 10° S daylight
13 Dec - 01:19:00 10° SSW 01:24:16 31° SSE 01:32:50 10° E visible
13 Dec - 03:41:28 10° WSW 03:49:18 56° S 04:04:38 10° ESE visible
13 Dec - 06:05:41 10° W 06:16:40 49° SSW 06:36:39 10° SE visible
13 Dec - 08:32:36 10° W 08:45:33 28° SSW 09:03:54 10° SSE daylight
14 Dec - 00:10:19 10° S 00:13:49 17° SE 00:18:23 10° ESE night (unlit)
14 Dec - 02:31:17 10° WSW 02:37:43 48° SSE 02:49:42 10° E visible
14 Dec - 04:54:50 10° W 05:04:00 53° S 05:21:42 10° ESE visible
14 Dec - 07:20:10 10° W 07:32:10 36° SSW 07:51:29 10° SSE visible
14 Dec - 09:52:36 10° WSW 10:01:08 14° SW 10:11:07 10° SSW daylight
15 Dec - 01:21:29 10° SW 01:26:42 35° SSE 01:35:22 10° E visible
15 Dec - 03:44:18 10° WSW 03:51:53 54° S 04:06:39 10° ESE visible
15 Dec - 06:08:40 10° W 06:19:08 43° SSW 06:37:45 10° SE visible
15 Dec - 08:36:35 10° WSW 08:47:47 22° SW 09:03:01 10° S daylight
